TimePST,TemperatureF,Dew PointF,Humidity,Sea Level PressureIn,VisibilityMPH,Wind Direction,Wind SpeedMPH,Gust SpeedMPH,PrecipitationIn,Events,Conditions,WindDirDegrees,DateUTC
12:04 AM,33.8,30.2,87,30.51,1.0,Calm,Calm,-,N/A,,Mist,0,2013-01-17 08:04:00
12:06 AM,33.8,30.2,87,30.51,2.0,Calm,Calm,-,N/A,,Scattered Clouds,0,2013-01-17 08:06:00
12:13 AM,33.8,32.0,93,30.51,7.0,Calm,Calm,-,N/A,,Scattered Clouds,0,2013-01-17 08:13:00
12:31 AM,30.2,30.2,100,30.51,1.8,Calm,Calm,-,N/A,,Scattered Clouds,0,2013-01-17 08:31:00
12:37 AM,32.0,30.2,93,30.52,0.8,Calm,Calm,-,N/A,,Mostly Cloudy,0,2013-01-17 08:37:00
12:46 AM,32.0,30.2,93,30.51,1.8,Calm,Calm,-,N/A,,Mostly Cloudy,0,2013-01-17 08:46:00
12:51 AM,33.8,30.2,87,30.51,3.0,Calm,Calm,-,N/A,,Overcast,0,2013-01-17 08:51:00
12:53 AM,33.1,30.9,92,30.53,4.0,Calm,Calm,-,N/A,,Overcast,0,2013-01-17 08:53:00
1:07 AM,35.6,33.8,93,30.51,7.0,NE,3.5,-,N/A,,Overcast,40,2013-01-17 09:07:00
1:53 AM,35.1,33.1,92,30.53,7.0,Calm,Calm,-,N/A,,Mostly Cloudy,0,2013-01-17 09:53:00
2:06 AM,33.8,30.2,87,30.51,5.0,Calm,Calm,-,N/A,,Scattered Clouds,0,2013-01-17 10:06:00
2:50 AM,35.6,32.0,87,30.51,6.0,Calm,Calm,-,N/A,,Mostly Cloudy,0,2013-01-17 10:50:00
2:53 AM,35.6,32.0,87,30.51,6.0,Calm,Calm,-,N/A,,Mostly Cloudy,0,2013-01-17 10:53:00
3:02 AM,35.6,33.8,93,30.50,6.0,Calm,Calm,-,N/A,,Overcast,0,2013-01-17 11:02:00
3:32 AM,35.6,32.0,87,30.48,6.0,Calm,Calm,-,N/A,,Scattered Clouds,0,2013-01-17 11:32:00
3:53 AM,30.9,30.0,96,30.49,2.0,Calm,Calm,-,N/A,,Clear,0,2013-01-17 11:53:00
4:08 AM,33.8,30.2,87,30.47,4.0,Calm,Calm,-,N/A,,Partly Cloudy,0,2013-01-17 12:08:00
4:17 AM,32.0,30.2,93,30.47,2.0,Calm,Calm,-,N/A,,Mostly Cloudy,0,2013-01-17 12:17:00
4:24 AM,30.2,30.2,100,30.47,1.2,Calm,Calm,-,N/A,,Mostly Cloudy,0,2013-01-17 12:24:00
4:50 AM,33.8,30.2,87,30.46,3.0,Calm,Calm,-,N/A,,Overcast,0,2013-01-17 12:50:00
4:53 AM,34.0,32.0,92,30.47,3.0,Calm,Calm,-,N/A,,Overcast,0,2013-01-17 12:53:00
5:13 AM,33.8,30.2,87,30.46,2.5,Calm,Calm,-,N/A,,Overcast,0,2013-01-17 13:13:00
5:24 AM,33.8,32.0,93,30.46,3.0,Calm,Calm,-,N/A,,Overcast,0,2013-01-17 13:24:00
5:53 AM,34.0,32.0,92,30.47,3.0,NW,4.6,-,N/A,,Overcast,320,2013-01-17 13:53:00
6:53 AM,35.1,33.1,92,30.45,4.0,Calm,Calm,-,N/A,,Overcast,0,2013-01-17 14:53:00
7:41 AM,35.6,33.8,93,30.44,4.0,Calm,Calm,-,N/A,,Overcast,0,2013-01-17 15:41:00
7:53 AM,35.1,33.1,92,30.46,4.0,Calm,Calm,-,N/A,,Overcast,0,2013-01-17 15:53:00
8:20 AM,35.6,33.8,93,30.45,2.5,Calm,Calm,-,N/A,,Overcast,0,2013-01-17 16:20:00
8:53 AM,35.1,33.1,92,30.47,1.8,Calm,Calm,-,N/A,,Overcast,0,2013-01-17 16:53:00
9:53 AM,35.1,33.1,92,30.48,1.8,Calm,Calm,-,N/A,,Overcast,0,2013-01-17 17:53:00
10:53 AM,35.1,33.1,92,30.47,0.8,Calm,Calm,-,N/A,,Overcast,0,2013-01-17 18:53:00
11:53 AM,36.0,33.1,89,30.44,1.0,Calm,Calm,-,N/A,,Overcast,0,2013-01-17 19:53:00
12:53 PM,37.0,34.0,89,30.41,1.0,Calm,Calm,-,N/A,,Overcast,0,2013-01-17 20:53:00
1:53 PM,37.0,34.0,89,30.38,1.5,Calm,Calm,-,N/A,,Overcast,0,2013-01-17 21:53:00
2:53 PM,37.0,34.0,89,30.36,1.5,Calm,Calm,-,N/A,,Overcast,0,2013-01-17 22:53:00
3:53 PM,37.0,34.0,89,30.35,2.0,Calm,Calm,-,N/A,,Overcast,0,2013-01-17 23:53:00
4:53 PM,36.0,34.0,93,30.36,1.5,Calm,Calm,-,N/A,,Overcast,0,2013-01-18 00:53:00
5:53 PM,36.0,34.0,93,30.35,1.5,Calm,Calm,-,N/A,,Overcast,0,2013-01-18 01:53:00
6:53 PM,36.0,34.0,93,30.34,1.5,Calm,Calm,-,N/A,,Overcast,0,2013-01-18 02:53:00
7:04 PM,35.6,33.8,93,30.33,0.5,Calm,Calm,-,N/A,Fog,Fog,0,2013-01-18 03:04:00
7:34 PM,35.6,33.8,93,30.33,0.2,Calm,Calm,-,N/A,Fog,Fog,0,2013-01-18 03:34:00
7:36 PM,35.6,33.8,93,30.33,0.2,Calm,Calm,-,N/A,Fog,Fog,0,2013-01-18 03:36:00
7:53 PM,36.0,34.0,93,30.34,0.2,Calm,Calm,-,N/A,Fog,Fog,0,2013-01-18 03:53:00
8:01 PM,35.6,33.8,93,30.32,0.5,WSW,3.5,-,N/A,Fog,Fog,240,2013-01-18 04:01:00
8:09 PM,35.6,33.8,93,30.32,0.5,Calm,Calm,-,N/A,Fog,Fog,0,2013-01-18 04:09:00
8:53 PM,36.0,35.1,97,30.33,0.5,Calm,Calm,-,N/A,Fog,Fog,0,2013-01-18 04:53:00
9:21 PM,35.6,35.6,100,30.31,0.2,Calm,Calm,-,N/A,Fog,Fog,0,2013-01-18 05:21:00
9:41 PM,37.4,35.6,93,30.31,0.2,Calm,Calm,-,N/A,Fog,Fog,0,2013-01-18 05:41:00
9:53 PM,37.0,35.1,93,30.32,0.2,Calm,Calm,-,N/A,Fog,Fog,0,2013-01-18 05:53:00
10:53 PM,35.1,34.0,96,30.32,0.2,South,3.5,-,N/A,Fog,Fog,190,2013-01-18 06:53:00
11:53 PM,35.1,33.1,92,30.31,0.2,Calm,Calm,-,N/A,Fog,Fog,0,2013-01-18 07:53:00